TimeEDT,TemperatureF,Dew PointF,Humidity,Sea Level PressureIn,VisibilityMPH,Wind Direction,Wind SpeedMPH,Gust SpeedMPH,PrecipitationIn,Events,Conditions,WindDirDegrees,DateUTC
12:10 AM,69.8,64.4,83,29.96,10.0,Calm,Calm,-,0.00,,Mostly Cloudy,0,2013-09-08 04:10:00
12:30 AM,69.8,64.4,83,29.96,10.0,Calm,Calm,-,0.00,,Partly Cloudy,0,2013-09-08 04:30:00
12:50 AM,68.0,64.4,88,29.96,10.0,SSW,4.6,-,0.00,,Clear,200,2013-09-08 04:50:00
1:10 AM,68.0,64.4,88,29.97,10.0,SSW,3.5,-,0.00,,Clear,210,2013-09-08 05:10:00
1:30 AM,66.2,64.4,94,29.97,10.0,SW,3.5,-,0.00,,Clear,230,2013-09-08 05:30:00
1:50 AM,66.2,64.4,94,29.97,10.0,Calm,Calm,-,0.00,,Partly Cloudy,0,2013-09-08 05:50:00
2:10 AM,66.2,64.4,94,29.96,10.0,SSE,3.5,-,0.00,,Partly Cloudy,160,2013-09-08 06:10:00
2:30 AM,66.2,64.4,94,29.96,10.0,SSE,3.5,-,0.00,,Clear,160,2013-09-08 06:30:00
2:50 AM,66.2,64.4,94,29.96,10.0,Calm,Calm,-,0.00,,Clear,0,2013-09-08 06:50:00
3:10 AM,66.2,64.4,94,29.96,10.0,SSE,3.5,-,0.00,,Partly Cloudy,160,2013-09-08 07:10:00
3:30 AM,64.4,64.4,100,29.95,9.0,Calm,Calm,-,0.00,,Partly Cloudy,0,2013-09-08 07:30:00
3:50 AM,64.4,64.4,100,29.95,9.0,Calm,Calm,-,0.00,,Clear,0,2013-09-08 07:50:00
4:10 AM,64.4,64.4,100,29.95,10.0,South,3.5,-,0.00,,Clear,180,2013-09-08 08:10:00
4:30 AM,62.6,62.6,100,29.95,8.0,Calm,Calm,-,0.00,,Clear,0,2013-09-08 08:30:00
4:50 AM,62.6,62.6,100,29.95,5.0,NNE,4.6,-,0.00,,Clear,30,2013-09-08 08:50:00
5:10 AM,62.6,62.6,100,29.95,7.0,Calm,Calm,-,0.00,,Clear,0,2013-09-08 09:10:00
5:30 AM,62.6,62.6,100,29.96,5.0,Calm,Calm,-,0.00,,Clear,0,2013-09-08 09:30:00
5:50 AM,60.8,60.8,100,29.96,4.0,Calm,Calm,-,0.00,,Clear,0,2013-09-08 09:50:00
6:10 AM,60.8,60.8,100,29.96,3.0,Calm,Calm,-,0.00,,Clear,0,2013-09-08 10:10:00
6:30 AM,60.8,60.8,100,29.97,3.0,Calm,Calm,-,0.00,,Clear,0,2013-09-08 10:30:00
6:50 AM,60.8,60.8,100,29.98,3.0,Calm,Calm,-,0.00,,Clear,0,2013-09-08 10:50:00
7:10 AM,60.8,60.8,100,29.99,2.0,Calm,Calm,-,0.00,,Clear,0,2013-09-08 11:10:00
7:30 AM,60.8,60.8,100,29.99,1.0,Calm,Calm,-,0.00,,Clear,0,2013-09-08 11:30:00
7:50 AM,60.8,60.8,100,29.99,2.0,Calm,Calm,-,0.00,,Clear,0,2013-09-08 11:50:00
8:10 AM,62.6,62.6,100,29.99,2.5,Calm,Calm,-,0.00,,Clear,0,2013-09-08 12:10:00
8:30 AM,64.4,64.4,100,29.99,4.0,Calm,Calm,-,0.00,,Clear,0,2013-09-08 12:30:00
8:50 AM,66.2,66.2,100,29.99,6.0,Calm,Calm,-,0.00,,Clear,0,2013-09-08 12:50:00
9:10 AM,69.8,66.2,88,30.00,9.0,North,8.1,-,0.00,,Clear,10,2013-09-08 13:10:00
9:30 AM,71.6,66.2,83,30.01,10.0,NNE,8.1,-,0.00,,Clear,30,2013-09-08 13:30:00
9:50 AM,71.6,66.2,83,30.01,10.0,NE,6.9,-,0.00,,Clear,40,2013-09-08 13:50:00
10:10 AM,73.4,66.2,78,30.01,10.0,NNE,11.5,-,0.00,,Clear,30,2013-09-08 14:10:00
10:30 AM,73.4,66.2,78,30.02,9.0,NE,9.2,-,0.00,,Clear,50,2013-09-08 14:30:00
10:50 AM,73.4,66.2,78,30.02,8.0,NE,9.2,-,0.00,,Scattered Clouds,50,2013-09-08 14:50:00
11:10 AM,75.2,66.2,73,30.01,8.0,East,9.2,-,0.00,,Mostly Cloudy,80,2013-09-08 15:10:00
11:30 AM,75.2,66.2,73,30.01,8.0,ENE,9.2,-,0.00,,Mostly Cloudy,60,2013-09-08 15:30:00
11:50 AM,75.2,66.2,73,30.01,9.0,NE,10.4,-,0.00,,Mostly Cloudy,50,2013-09-08 15:50:00
12:10 PM,77.0,66.2,69,30.01,10.0,NE,8.1,-,0.00,,Mostly Cloudy,40,2013-09-08 16:10:00
12:30 PM,75.2,66.2,73,30.02,9.0,NE,9.2,-,0.00,,Mostly Cloudy,40,2013-09-08 16:30:00
12:50 PM,77.0,66.2,69,30.02,10.0,NE,10.4,-,0.00,,Mostly Cloudy,50,2013-09-08 16:50:00
1:10 PM,75.2,66.2,73,30.02,9.0,NNE,10.4,-,0.00,,Overcast,30,2013-09-08 17:10:00
1:30 PM,75.2,66.2,73,30.02,7.0,North,12.7,-,0.00,,Mostly Cloudy,10,2013-09-08 17:30:00
1:50 PM,75.2,66.2,73,30.02,5.0,ENE,13.8,-,0.00,,Mostly Cloudy,60,2013-09-08 17:50:00
2:10 PM,73.4,68.0,83,30.03,7.0,NE,11.5,-,0.00,,Mostly Cloudy,50,2013-09-08 18:10:00
2:30 PM,73.4,66.2,78,30.03,9.0,ENE,12.7,-,0.00,,Mostly Cloudy,60,2013-09-08 18:30:00
2:50 PM,75.2,66.2,73,30.02,10.0,NE,12.7,18.4,0.00,,Partly Cloudy,40,2013-09-08 18:50:00
3:10 PM,73.4,66.2,78,30.03,10.0,NE,11.5,-,0.00,,Mostly Cloudy,50,2013-09-08 19:10:00
3:30 PM,73.4,66.2,78,30.02,10.0,NNE,11.5,-,0.00,,Overcast,30,2013-09-08 19:30:00
3:50 PM,73.4,66.2,78,30.02,10.0,NNE,6.9,-,0.00,,Mostly Cloudy,30,2013-09-08 19:50:00
4:10 PM,75.2,66.2,73,30.01,10.0,NNE,9.2,-,0.00,,Mostly Cloudy,30,2013-09-08 20:10:00
4:30 PM,77.0,64.4,65,30.01,10.0,NNE,13.8,-,0.00,,Mostly Cloudy,20,2013-09-08 20:30:00
4:50 PM,75.2,64.4,69,30.00,10.0,NNE,11.5,-,0.00,,Mostly Cloudy,30,2013-09-08 20:50:00
5:10 PM,75.2,64.4,69,30.01,10.0,NNE,12.7,-,0.00,,Overcast,30,2013-09-08 21:10:00
5:30 PM,75.2,64.4,69,30.00,10.0,NE,10.4,-,0.00,,Mostly Cloudy,40,2013-09-08 21:30:00
5:50 PM,75.2,64.4,69,30.00,10.0,NE,9.2,-,0.00,,Partly Cloudy,40,2013-09-08 21:50:00
6:10 PM,73.4,64.4,73,29.99,10.0,NE,9.2,-,0.00,,Clear,40,2013-09-08 22:10:00
6:30 PM,73.4,64.4,73,30.00,10.0,NE,10.4,-,0.00,,Clear,40,2013-09-08 22:30:00
6:50 PM,73.4,64.4,73,30.00,10.0,NE,9.2,-,0.00,,Clear,40,2013-09-08 22:50:00
7:10 PM,73.4,64.4,73,30.01,10.0,NE,11.5,-,0.00,,Clear,40,2013-09-08 23:10:00
7:30 PM,71.6,64.4,78,30.01,10.0,NE,9.2,-,0.00,,Clear,40,2013-09-08 23:30:00
7:50 PM,69.8,64.4,83,30.02,10.0,NE,9.2,-,0.00,,Clear,40,2013-09-08 23:50:00
8:10 PM,69.8,64.4,83,30.02,10.0,NE,8.1,-,0.00,,Clear,40,2013-09-09 00:10:00
8:30 PM,68.0,62.6,83,30.02,10.0,NE,6.9,-,0.00,,Clear,50,2013-09-09 00:30:00
8:50 PM,66.2,62.6,88,30.02,10.0,NE,6.9,-,0.00,,Clear,40,2013-09-09 00:50:00
9:10 PM,66.2,62.6,88,30.02,10.0,NE,5.8,-,0.00,,Clear,40,2013-09-09 01:10:00
9:30 PM,66.2,62.6,88,30.03,10.0,NE,9.2,-,0.00,,Clear,50,2013-09-09 01:30:00
9:50 PM,64.4,62.6,94,30.03,10.0,ENE,6.9,-,0.00,,Clear,60,2013-09-09 01:50:00
10:10 PM,64.4,60.8,88,30.03,10.0,ENE,6.9,-,0.00,,Clear,60,2013-09-09 02:10:00
10:30 PM,64.4,60.8,88,30.03,10.0,ENE,5.8,-,0.00,,Clear,60,2013-09-09 02:30:00
10:50 PM,64.4,60.8,88,30.03,10.0,East,5.8,-,0.00,,Partly Cloudy,80,2013-09-09 02:50:00
11:10 PM,62.6,59.0,88,30.03,10.0,East,4.6,-,0.00,,Clear,80,2013-09-09 03:10:00
11:30 PM,62.6,59.0,88,30.03,10.0,ENE,4.6,-,0.00,,Clear,70,2013-09-09 03:30:00
11:50 PM,62.6,60.8,94,30.03,10.0,East,3.5,-,0.00,,Clear,90,2013-09-09 03:50:00